AI9T Weather Reports


time (UTC)temp
F
wind
direction
speed
knots
gust
knots
rain 1hr
in
rain 24hr
in
rain mn
in
humidity
%
barometer
mb
20260510104004 54 355 0.0 2.6 0.00 0.00 0.00 79 1012.5
20260510103004 54 355 0.0 0.0 0.00 0.00 0.00 80 1012.1
20260510102004 54 355 0.9 2.6 0.00 0.00 0.00 79 1012.2
20260510101503 55 355 0.0 4.3 0.00 0.00 0.00 79 1012.1
20260510100004 55 349 1.7 2.6 0.00 0.00 0.00 78 1011.8
20260510093503 55 336 0.9 2.6 0.00 0.00 0.00 80 1011.2
20260510093004 55 331 0.9 4.3 0.00 0.00 0.00 81 1011.0
20260510092004 55 329 0.9 2.6 0.00 0.00 0.00 84 1010.7
20260510091004 55 334 1.7 5.2 0.00 0.00 0.00 85 1010.8
20260510090503 55 333 1.7 4.3 0.00 0.00 0.00 87 1010.9
20260510085003 56 259 0.9 2.6 0.00 0.01 0.00 86 1010.8
20260510084504 56 257 0.0 0.0 0.00 0.01 0.00 86 1010.9
20260510084004 56 257 0.0 1.7 0.00 0.01 0.00 85 1010.8
20260510083504 56 257 0.0 1.7 0.00 0.01 0.00 85 1010.8
20260510082004 57 257 0.0 0.0 0.00 0.01 0.00 82 1010.6
20260510081504 58 257 0.0 0.0 0.00 0.01 0.00 81 1010.6
20260510081004 58 257 0.0 0.0 0.00 0.01 0.00 80 1010.8
20260510080004 59 257 0.0 0.0 0.00 0.01 0.00 78 1011.0
20260510075504 59 257 0.0 0.0 0.00 0.01 0.00 77 1011.2
20260510075004 59 257 0.0 0.0 0.00 0.01 0.00 76 1011.4
20260510074003 59 257 0.0 2.6 0.00 0.01 0.00 75 1011.5
20260510072505 60 240 0.0 2.6 0.00 0.01 0.00 75 1011.7
20260510071504 60 230 0.9 4.3 0.00 0.01 0.00 74 1011.4
20260510071004 60 270 0.0 2.6 0.00 0.01 0.00 76 1011.2
20260510070004 60 278 0.0 2.6 0.00 0.01 0.00 80 1011.0
20260510064004 60 290 0.0 1.7 0.00 0.03 0.00 82 1010.7
20260510062504 60 304 0.9 2.6 0.00 0.06 0.00 83 1010.6
20260510062004 60 326 0.0 2.6 0.00 0.07 0.00 84 1010.5
20260510054504 61 335 0.0 0.0 0.00 0.15 0.00 81 1010.0
20260510053504 61 336 0.0 0.0 0.00 0.17 0.00 82 1009.8
20260510053004 61 336 0.0 0.0 0.00 0.17 0.00 80 1009.7
20260510052004 61 336 0.0 0.0 0.00 0.18 0.00 79 1009.6
20260510051004 61 336 0.0 0.0 0.00 0.19 0.00 79 1009.6
20260510044504 61 207 0.0 5.2 0.00 0.20 0.20 78 1009.3
20260510044004 61 333 1.7 5.2 0.00 0.20 0.20 78 1009.4
20260510043004 61 206 1.7 4.3 0.00 0.20 0.20 75 1009.1
20260510041504 61 206 0.9 5.2 0.00 0.20 0.20 75 1009.1
20260510040504 61 205 2.6 5.2 0.00 0.20 0.20 75 1009.2
20260510040004 61 205 2.6 5.2 0.00 0.20 0.20 76 1009.2
20260510034504 61 205 2.6 5.2 0.00 0.20 0.20 74 1009.2
20260510034004 62 205 3.5 4.3 0.00 0.21 0.20 74 1009.2
20260510033504 62 205 2.6 5.2 0.00 0.21 0.20 74 1009.1
20260510032504 62 205 2.6 5.2 0.00 0.21 0.20 73 1009.0
20260510030504 61 200 0.0 2.6 0.00 0.23 0.20 74 1009.1
20260510025004 61 200 2.6 4.3 0.00 0.24 0.20 77 1009.1
20260510024504 62 200 2.6 4.3 0.00 0.24 0.20 75 1009.1
20260510024003 62 200 1.7 4.3 0.00 0.24 0.20 75 1008.9
20260510023004 62 200 2.6 4.3 0.00 0.25 0.20 75 1008.9
20260510022504 62 200 2.6 4.3 0.00 0.25 0.20 74 1008.8
20260510020004 63 200 0.0 1.7 0.00 0.27 0.20 74 1008.5
20260510015504 63 200 0.0 1.7 0.00 0.27 0.20 72 1008.3
20260510012004 65 200 0.0 2.6 0.00 0.28 0.20 68 1007.7
20260510011504 65 200 0.9 2.6 0.00 0.28 0.20 66 1007.7
20260510010004 67 200 0.0 1.7 0.00 0.29 0.20 64 1007.5
20260510005504 67 200 0.0 2.6 0.00 0.29 0.20 63 1007.5
20260510004504 68 200 1.7 2.6 0.00 0.30 0.20 62 1007.4
20260510004004 68 200 0.9 2.6 0.00 0.31 0.20 62 1007.4
20260510003503 69 200 0.0 2.6 0.00 0.31 0.20 62 1007.4
20260510001504 70 200 0.9 5.2 0.00 0.32 0.20 59 1007.3
20260510000004 71 211 1.7 5.2 0.00 0.35 0.20 58 1007.0
20260509235504 71 205 1.7 4.3 0.00 0.35 0.20 58 1007.0
20260509234503 72 246 2.6 6.1 0.00 0.35 0.20 62 1007.0
20260509234004 72 197 0.9 2.6 0.00 0.35 0.20 61 1007.0
20260509232504 72 218 1.7 7.0 0.00 0.36 0.20 61 1006.9
20260509225004 73 233 2.6 10.4 0.00 0.37 0.20 59 1006.9
20260509224503 74 201 4.3 7.8 0.00 0.37 0.20 59 1006.9
20260509223504 74 205 3.5 6.1 0.00 0.38 0.20 59 1006.8
20260509223003 73 202 4.3 7.8 0.00 0.39 0.20 58 1006.7
20260509222004 73 223 2.6 11.3 0.00 0.42 0.20 56 1006.7
20260509221504 73 209 6.1 11.3 0.00 0.42 0.20 55 1006.7
20260509220503 73 207 3.5 7.0 0.00 0.42 0.20 57 1006.8
20260509220003 73 226 2.6 6.1 0.00 0.42 0.20 56 1006.7
20260509214504 73 213 6.1 10.4 0.00 0.42 0.20 56 1006.8
20260509213504 73 229 4.3 10.4 0.00 0.42 0.20 53 1006.7
20260509213004 73 231 2.6 10.4 0.00 0.42 0.20 57 1006.8
20260509212004 73 214 4.3 8.7 0.00 0.42 0.20 58 1006.7
20260509211504 74 209 3.5 10.4 0.00 0.42 0.20 57 1006.7
20260509211003 74 221 4.3 10.4 0.00 0.42 0.20 58 1006.7
20260509210503 74 203 2.6 10.4 0.00 0.42 0.20 57 1006.7
20260509205503 75 242 5.2 10.4 0.00 0.43 0.20 55 1006.7
20260509204504 74 243 3.5 10.4 0.00 0.43 0.20 59 1006.7
20260509204004 74 220 2.6 8.7 0.00 0.43 0.20 56 1006.8
20260509203004 74 217 5.2 10.4 0.00 0.44 0.20 59 1006.6
20260509200504 74 206 8.7 17.4 0.00 0.44 0.20 60 1006.7
20260509195503 74 236 5.2 8.7 0.00 0.44 0.20 59 1006.8
20260509193504 73 202 6.1 14.8 0.00 0.44 0.20 60 1007.0
20260509193004 72 209 7.8 14.8 0.00 0.44 0.20 64 1007.0
20260509191004 71 198 6.1 13.0 0.00 0.44 0.20 67 1006.9
20260509190504 71 185 6.1 13.0 0.00 0.44 0.20 69 1007.1
20260509183505 69 206 6.1 11.3 0.00 0.44 0.20 70 1007.3
20260509183005 69 181 6.1 13.0 0.00 0.44 0.20 72 1007.3
20260509181504 68 203 7.8 12.2 0.00 0.44 0.20 73 1007.4
20260509181004 68 181 7.8 12.2 0.00 0.44 0.20 75 1007.4
20260509175004 67 206 6.1 12.2 0.00 0.44 0.20 73 1007.5
20260509174504 67 183 5.2 14.8 0.00 0.44 0.20 75 1007.5
20260509174004 67 199 7.8 14.8 0.00 0.44 0.20 77 1007.5
20260509173504 67 199 6.1 14.8 0.00 0.44 0.20 76 1007.5
20260509172504 67 185 4.3 14.8 0.00 0.44 0.20 76 1007.7
20260509172004 66 166 6.1 14.8 0.00 0.44 0.20 76 1007.8
20260509171504 66 197 7.8 13.9 0.00 0.44 0.20 77 1007.9
20260509170504 66 199 7.8 13.9 0.00 0.44 0.20 77 1008.0
20260509170004 66 211 5.2 13.0 0.00 0.44 0.20 78 1007.9
20260509165004 65 204 6.1 13.0 0.00 0.44 0.20 79 1008.0
20260509164504 65 208 5.2 13.0 0.00 0.44 0.20 80 1008.1
20260509162003 63 182 5.2 11.3 0.00 0.44 0.20 79 1008.0
20260509161504 63 190 5.2 11.3 0.00 0.44 0.20 81 1008.0
20260509160504 63 186 6.1 17.4 0.00 0.44 0.20 83 1008.1
20260509160004 62 206 6.1 17.4 0.00 0.44 0.20 83 1008.2
20260509155004 62 189 4.3 12.2 0.00 0.44 0.20 85 1008.0
20260509153504 61 192 6.1 11.3 0.00 0.44 0.20 87 1007.9
20260509152004 60 204 7.8 11.3 0.00 0.44 0.20 89 1007.9
20260509151504 60 196 5.2 12.2 0.00 0.44 0.20 87 1007.8
20260509151004 61 212 5.2 12.2 0.00 0.44 0.20 90 1007.7
20260509150504 60 201 6.1 12.2 0.00 0.44 0.20 90 1007.6
20260509150003 60 208 6.1 10.4 0.00 0.44 0.20 92 1007.7
20260509145504 59 205 4.3 7.8 0.00 0.44 0.20 92 1007.7
20260509144503 59 196 4.3 12.2 0.00 0.44 0.20 94 1007.7
20260509144003 59 207 5.2 8.7 0.00 0.44 0.20 95 1007.7
20260509143503 58 190 5.2 8.7 0.00 0.44 0.20 95 1007.7
20260509143004 58 199 4.3 7.0 0.00 0.44 0.20 96 1007.7
20260509142503 58 208 4.3 7.8 0.00 0.44 0.20 97 1007.7
20260509142004 58 201 4.3 7.8 0.00 0.44 0.20 97 1007.7
20260509141504 58 207 5.2 7.0 0.00 0.44 0.20 97 1007.7
20260509141004 58 220 4.3 10.4 0.00 0.44 0.20 97 1007.8
20260509140004 57 204 5.2 8.7 0.00 0.44 0.20 97 1007.8
20260509135503 57 210 5.2 8.7 0.00 0.44 0.20 97 1007.8
20260509134504 57 213 4.3 6.1 0.00 0.44 0.20 97 1007.8
20260509132504 56 254 2.6 6.1 0.00 0.44 0.20 97 1007.7
20260509131504 56 207 4.3 7.8 0.00 0.44 0.20 97 1007.6
20260509131004 55 205 5.2 7.8 0.00 0.44 0.20 97 1007.7
20260509130503 55 196 3.5 7.0 0.00 0.44 0.20 97 1007.8
20260509130004 54 208 4.3 7.0 0.00 0.44 0.20 97 1007.9
20260509125504 54 202 2.6 7.0 0.00 0.44 0.20 97 1008.0
20260509124004 54 207 5.2 8.7 0.00 0.44 0.20 97 1008.0
20260509123503 54 205 5.2 8.7 0.00 0.44 0.20 97 1008.0
20260509122004 54 203 3.5 8.7 0.00 0.44 0.20 97 1008.0
20260509120004 53 209 0.9 6.1 0.00 0.44 0.20 97 1007.8
20260509112004 53 211 3.5 6.1 0.00 0.44 0.20 97 1007.3
20260509110004 53 186 0.9 2.6 0.00 0.44 0.20 97 1006.9